AZU4144 SBKP-SBEG

Flight info

Callsign AZU4144
Flight time N/A
Altitude 34000
Route VUPOG UM417 PUDKA/N0473F360 UM417 UMGUP DCT IRUMO
Aircraft E195/M-SDE3GILORVW/S

Departure

Time 2026-05-04 13:28
Airport Viracopos International Airport (SBKP)

Arrival

Time N/A
Airport Eduardo Gomes International Airport (SBEG)
Time Latitude Longitude Altitude Speed Heading
2026-05-04 12:53 -23.00523 -47.14901 2175 ft 0 kts 38°
2026-05-04 13:15 -23.00532 -47.14909 2175 ft 2 kts 38°
2026-05-04 13:16 -23.00539 -47.14915 2175 ft 2 kts 31°
2026-05-04 13:16 -23.00553 -47.14920 2175 ft 2 kts
2026-05-04 13:16 -23.00568 -47.14919 2175 ft 2 kts 342°
2026-05-04 13:16 -23.00581 -47.14911 2175 ft 2 kts 318°
2026-05-04 13:17 -23.00585 -47.14908 2175 ft 0 kts 314°
2026-05-04 13:20 -23.00584 -47.14909 2175 ft 0 kts 314°
2026-05-04 13:20 -23.00580 -47.14912 2175 ft 1 kts 314°
2026-05-04 13:20 -23.00574 -47.14920 2175 ft 1 kts 314°
2026-05-04 13:20 -23.00566 -47.14930 2175 ft 2 kts 306°
2026-05-04 13:21 -23.00556 -47.14944 2175 ft 2 kts 307°
2026-05-04 13:21 -23.00544 -47.14961 2175 ft 3 kts 307°
2026-05-04 13:21 -23.00530 -47.14982 2175 ft 3 kts 308°
2026-05-04 13:21 -23.00512 -47.15006 2175 ft 4 kts 308°
2026-05-04 13:22 -23.00493 -47.15032 2175 ft 4 kts 309°
2026-05-04 13:22 -23.00471 -47.15061 2175 ft 5 kts 309°
2026-05-04 13:22 -23.00448 -47.15094 2175 ft 5 kts 305°
2026-05-04 13:22 -23.00423 -47.15131 2175 ft 6 kts 306°
2026-05-04 13:23 -23.00393 -47.15159 2175 ft 5 kts 12°
2026-05-04 13:23 -23.00355 -47.15145 2175 ft 5 kts 33°
2026-05-04 13:23 -23.00320 -47.15118 2175 ft 6 kts 36°
2026-05-04 13:23 -23.00284 -47.15089 2175 ft 6 kts 38°
2026-05-04 13:24 -23.00247 -47.15055 2175 ft 7 kts 41°
2026-05-04 13:24 -23.00207 -47.15020 2175 ft 7 kts 39°
2026-05-04 13:24 -23.00164 -47.14985 2175 ft 7 kts 34°
2026-05-04 13:25 -23.00070 -47.14912 2175 ft 8 kts 37°
2026-05-04 13:25 -23.00023 -47.14869 2175 ft 9 kts 47°
2026-05-04 13:25 -22.99981 -47.14816 2175 ft 9 kts 51°
2026-05-04 13:25 -22.99937 -47.14774 2175 ft 0 kts 40°
2026-05-04 13:26 -22.99936 -47.14773 2175 ft 0 kts 40°
2026-05-04 13:26 -22.99932 -47.14769 2175 ft 0 kts 40°
2026-05-04 13:26 -22.99924 -47.14761 2175 ft 3 kts 42°
2026-05-04 13:26 -22.99898 -47.14734 2175 ft 5 kts 46°
2026-05-04 13:27 -22.99870 -47.14702 2175 ft 6 kts 47°
2026-05-04 13:27 -22.99870 -47.14665 2175 ft 5 kts 126°
2026-05-04 13:27 -22.99872 -47.14661 2175 ft 0 kts 126°
2026-05-04 13:27 -22.99898 -47.14624 2175 ft 25 kts 127°
2026-05-04 13:28 -23.00166 -47.14252 2176 ft 96 kts 127°
2026-05-04 13:28 -23.00709 -47.13494 2177 ft 155 kts 127°
2026-05-04 13:28 -23.01423 -47.12479 2495 ft 175 kts 126°
2026-05-04 13:28 -23.02069 -47.11344 3112 ft 180 kts 100°
2026-05-04 13:29 -23.01961 -47.10024 3667 ft 183 kts 74°
2026-05-04 13:29 -23.01640 -47.08591 3914 ft 206 kts 76°
2026-05-04 13:29 -23.01340 -47.06982 4204 ft 229 kts 78°
2026-05-04 13:29 -23.01056 -47.05246 4744 ft 239 kts 78°
2026-05-04 13:30 -23.00791 -47.03482 5509 ft 238 kts 77°
2026-05-04 13:30 -23.00243 -47.01849 6202 ft 230 kts 44°
2026-05-04 13:30 -22.99051 -47.00720 6869 ft 227 kts 34°
2026-05-04 13:30 -22.97790 -46.99670 7416 ft 234 kts 34°
2026-05-04 13:31 -22.96427 -46.98547 7536 ft 260 kts 35°
2026-05-04 13:31 -22.94914 -46.97303 7829 ft 278 kts 35°
2026-05-04 13:31 -22.93340 -46.96013 8348 ft 286 kts 35°
2026-05-04 13:31 -22.91715 -46.94775 8879 ft 288 kts 22°
2026-05-04 13:32 -22.89742 -46.94391 9327 ft 290 kts 351°
2026-05-04 13:32 -22.87872 -46.95135 9792 ft 282 kts 329°
2026-05-04 13:32 -22.86148 -46.96200 10284 ft 286 kts 329°
2026-05-04 13:32 -22.84397 -46.97281 10795 ft 291 kts 329°
2026-05-04 13:33 -22.82623 -46.98375 11328 ft 296 kts 328°
2026-05-04 13:33 -22.80813 -46.99486 11854 ft 301 kts 328°
2026-05-04 13:33 -22.78946 -47.00610 12216 ft 312 kts 328°
2026-05-04 13:33 -22.77024 -47.01813 12602 ft 321 kts 328°
2026-05-04 13:34 -22.75018 -47.02954 13046 ft 330 kts 330°
2026-05-04 13:34 -22.72920 -47.04094 13567 ft 336 kts 331°
2026-05-04 13:34 -22.70762 -47.05271 13787 ft 351 kts 330°
2026-05-04 13:34 -22.70631 -47.05344 13830 ft 351 kts 330°
2026-05-04 13:35 -22.68813 -47.06354 14531 ft 348 kts 330°
2026-05-04 13:35 -22.64589 -47.08681 16199 ft 337 kts 329°
2026-05-04 13:35 -22.62477 -47.09840 16818 ft 338 kts 329°
2026-05-04 13:36 -22.60350 -47.11008 17314 ft 342 kts 329°
2026-05-04 13:36 -22.58209 -47.12182 17795 ft 346 kts 329°
2026-05-04 13:36 -22.56020 -47.13382 18300 ft 350 kts 328°
2026-05-04 13:36 -22.53831 -47.14581 18793 ft 353 kts 328°
2026-05-04 13:37 -22.51616 -47.15794 19299 ft 355 kts 328°
2026-05-04 13:37 -22.49413 -47.17000 19794 ft 358 kts 328°
2026-05-04 13:37 -22.47168 -47.18228 20283 ft 360 kts 328°
2026-05-04 13:37 -22.45673 -47.19046 20590 ft 362 kts 328°
2026-05-04 13:38 -22.42633 -47.20708 21174 ft 367 kts 328°
2026-05-04 13:38 -22.40340 -47.21962 21633 ft 369 kts 328°
2026-05-04 13:38 -22.38034 -47.23222 22071 ft 372 kts 328°
2026-05-04 13:38 -22.35704 -47.24494 22500 ft 374 kts 328°
2026-05-04 13:39 -22.33354 -47.25777 22936 ft 376 kts 328°
2026-05-04 13:39 -22.31013 -47.27054 23448 ft 374 kts 328°
2026-05-04 13:39 -22.28717 -47.28380 23927 ft 369 kts 318°